W0NKY-13 Weather Reports


Display with metric or nautical units.
time (UTC)temp
F
wind
direction
speed
MPH
gust
MPH
rain 1hr
in
rain 24hr
in
rain mn
in
humidity
%
barometer
mb
20260505085516 62 21 1.0 3.0 0.00 0.00 0.00 64 1010.1
20260505084519 62 53 1.0 4.0 0.00 0.00 0.00 63 1010.0
20260505083516 63 29 1.0 3.0 0.00 0.00 0.00 63 1009.9
20260505082519 63 31 1.0 6.0 0.00 0.00 0.00 61 1009.6
20260505081519 63 40 1.0 4.0 0.00 0.00 0.00 61 1009.3
20260505080520 64 43 1.0 3.0 0.00 0.00 0.00 60 1009.1
20260505075517 64 24 2.0 4.0 0.00 0.00 0.00 60 1009.1
20260505074516 64 22 1.0 5.0 0.00 0.00 0.00 61 1009.2
20260505073520 64 12 2.0 5.0 0.00 0.00 0.00 60 1009.1
20260505072517 64 31 2.0 5.0 0.00 0.00 0.00 59 1008.9
20260505071517 64 38 2.0 5.0 0.00 0.00 0.00 59 1008.9
20260505070517 64 20 2.0 6.0 0.00 0.00 0.00 59 1009.0
20260505065538 65 18 2.0 6.0 0.00 0.00 0.00 59 1009.2
20260505064520 65 12 2.0 6.0 0.00 0.00 0.00 59 1009.2
20260505063517 65 19 2.0 8.0 0.00 0.00 0.00 58 1009.2
20260505062518 65 39 2.0 6.0 0.00 0.00 0.00 59 1009.1
20260505061518 65 0 2.0 6.0 0.00 0.00 0.00 58 1009.1
20260505060518 65 9 2.0 9.0 0.00 0.00 0.00 59 1008.9
20260505055518 65 16 2.0 4.0 0.00 0.00 0.00 59 1008.9
20260505054538 65 18 2.0 5.0 0.00 0.00 0.00 59 1008.7
20260505053518 65 25 1.0 5.0 0.00 0.00 0.00 60 1008.7
20260505052519 65 17 2.0 7.0 0.00 0.00 0.00 59 1008.7
20260505051539 65 3 2.0 5.0 0.00 0.00 0.00 59 1008.7
20260505050516 65 21 2.0 6.0 0.00 0.00 0.00 59 1008.7
20260505041516 65 22 2.0 5.0 0.00 0.00 0.00 60 1009.3
20260505040536 66 32 1.0 4.0 0.00 0.00 0.00 60 1009.3
20260505035520 65 1 2.0 5.0 0.00 0.00 0.00 61 1009.3
20260505034520 65 9 2.0 5.0 0.00 0.00 0.00 62 1009.3
20260505033517 64 57 1.0 3.0 0.00 0.00 0.00 62 1009.3
20260505032517 64 26 1.0 3.0 0.00 0.00 0.00 63 1009.2
20260505031517 64 63 1.0 4.0 0.00 0.00 0.00 63 1009.2
20260505030520 65 19 1.0 4.0 0.00 0.00 0.00 63 1009.1
20260505025520 66 23 1.0 4.0 0.00 0.00 0.00 61 1009.0
20260505024537 66 15 1.0 3.0 0.00 0.00 0.00 60 1008.8
20260505023518 67 17 1.0 3.0 0.00 0.00 0.00 60 1008.7
20260505022518 67 22 1.0 4.0 0.00 0.00 0.00 59 1008.6
20260505021518 67 26 1.0 3.0 0.00 0.00 0.00 59 1008.5
20260505020518 67 74 1.0 5.0 0.00 0.00 0.00 58 1008.3
20260505015518 66 21 1.0 5.0 0.00 0.00 0.00 59 1008.0
20260505014518 66 30 1.0 5.0 0.00 0.00 0.00 60 1007.8
20260505013518 66 11 1.0 3.0 0.00 0.00 0.00 61 1007.8
20260505012518 67 60 1.0 3.0 0.00 0.00 0.00 60 1007.8
20260505011519 67 68 1.0 3.0 0.00 0.00 0.00 60 1007.7
20260505010556 68 37 1.0 2.0 0.00 0.00 0.00 59 1007.7
20260505005515 69 37 1.0 6.0 0.00 0.00 0.00 57 1007.7
20260505004519 70 44 1.0 3.0 0.00 0.00 0.00 55 1007.6
20260505003516 70 32 1.0 5.0 0.00 0.00 0.00 54 1007.7
20260505002519 71 9 2.0 5.0 0.00 0.00 0.00 54 1007.7
20260505001519 71 8 2.0 7.0 0.00 0.01 0.00 53 1007.8
20260505000516 71 4 2.0 7.0 0.00 0.01 0.00 53 1007.9
20260504235517 72 101 1.0 3.0 0.00 0.01 0.00 52 1008.1
20260504234517 72 58 1.0 3.0 0.00 0.01 0.00 51 1008.1
20260504233519 72 19 1.0 4.0 0.00 0.01 0.00 51 1008.3
20260504232557 72 76 1.0 3.0 0.00 0.01 0.00 52 1008.5
20260504231517 73 27 1.0 5.0 0.00 0.01 0.00 50 1008.6
20260504230558 73 335 1.0 5.0 0.00 0.01 0.00 49 1008.7
20260504225517 74 359 2.0 8.0 0.00 0.01 0.00 48 1008.8
20260504224558 75 338 2.0 7.0 0.00 0.01 0.00 47 1008.8
20260504223518 75 12 1.0 6.0 0.00 0.01 0.00 48 1008.9
20260504222537 75 345 2.0 9.0 0.00 0.01 0.00 47 1008.8
20260504221518 75 0 2.0 9.0 0.00 0.01 0.00 46 1008.9
20260504220518 75 355 2.0 9.0 0.00 0.01 0.00 46 1009.0
20260504215518 76 356 2.0 7.0 0.00 0.01 0.00 48 1008.9
20260504214518 77 7 2.0 6.0 0.00 0.01 0.00 46 1009.0
20260504213519 77 327 2.0 8.0 0.00 0.01 0.00 46 1009.0
20260504212519 77 348 2.0 6.0 0.00 0.01 0.00 47 1009.1
20260504211516 76 15 3.0 11.0 0.00 0.01 0.00 47 1009.3
20260504210516 77 356 2.0 7.0 0.00 0.01 0.00 49 1009.3
20260504205536 77 6 2.0 5.0 0.00 0.01 0.00 49 1009.4
20260504204516 78 56 1.0 3.0 0.00 0.01 0.00 48 1009.5
20260504203519 78 342 1.0 5.0 0.00 0.01 0.00 48 1009.6
20260504202519 78 334 2.0 5.0 0.00 0.01 0.00 48 1009.8
20260504201520 77 0 2.0 5.0 0.00 0.01 0.00 48 1010.0
20260504200537 75 1 0.0 2.0 0.00 0.01 0.00 52 1010.2
20260504195516 75 117 1.0 5.0 0.00 0.01 0.00 52 1010.3
20260504194517 76 348 2.0 7.0 0.00 0.01 0.00 50 1010.4
20260504193540 77 358 1.0 7.0 0.00 0.01 0.00 50 1010.5
20260504192517 77 351 1.0 4.0 0.00 0.01 0.00 51 1010.7
20260504191517 77 354 2.0 8.0 0.00 0.01 0.00 49 1010.9
20260504190518 75 125 2.0 5.0 0.00 0.01 0.00 52 1011.1
20260504185538 75 19 2.0 5.0 0.00 0.01 0.00 52 1011.2
20260504184518 73 87 1.0 5.0 0.00 0.01 0.00 57 1011.2
20260504183518 73 81 2.0 5.0 0.00 0.01 0.00 57 1011.3
20260504182518 73 73 2.0 7.0 0.00 0.01 0.00 57 1011.3
20260504181518 72 127 2.0 7.0 0.00 0.01 0.00 57 1011.2
20260504180516 72 84 2.0 5.0 0.00 0.01 0.00 56 1011.1
20260504175519 71 3 2.0 8.0 0.00 0.01 0.00 55 1011.0
20260504174519 71 40 2.0 5.0 0.00 0.01 0.00 56 1011.1
20260504173559 71 20 2.0 7.0 0.00 0.01 0.00 56 1011.1
20260504172517 70 7 2.0 6.0 0.00 0.01 0.00 57 1011.2
20260504171536 68 46 2.0 5.0 0.00 0.01 0.00 59 1011.1
20260504170516 68 93 2.0 6.0 0.00 0.01 0.00 58 1011.2
20260504150518 69 54 2.0 4.0 0.00 0.01 0.00 57 1011.7
20260504140518 66 36 2.0 5.0 0.00 0.01 0.00 57 1011.5
20260504130520 55 32 1.0 3.0 0.00 0.01 0.00 70 1011.9
20260504110516 53 1 1.0 4.0 0.00 0.01 0.00 68 1012.0
20260504100516 52 0 1.0 4.0 0.00 0.01 0.00 67 1012.4